[[{"header":{"parameterUnit":"m.s-1","parameterCategory":1,"la1":30.2991,"la2":30.254,"lo1":-89.0895,"lo2":-89.0444,"dy":0.0017,"dx":0.0017,"nx":28,"ny":28,"refTime":"2023-10-10T21:00:00:Z","depth":0,"parameterNumber":2,"parameterNumberName":"U-component_of_WINDS"},"data":[0,0,0,0,0,0,0,0,0,0,0,0,0,0,0,0,0,0,0,0,0,0,0,0,0,0,0,0,0,0,0,0,0,0,0,0,0,0,0,0,0,0,0,0,0,0,0,0,0,0,0,0,0,0,0,0,0,0,-0.7091,-0.709,0,-0.7065,-0.7064,-0.7064,-0.7042,-0.7042,-0.7042,-0.7042,-0.7014,-0.7014,-0.7013,0,0,0,0,0,0,0,0,0,0,0,0,0,-0.712,-0.712,-0.7091,-0.709,-0.709,-0.7065,-0.7064,-0.7064,-0.7042,-0.7042,-0.7042,-0.7042,-0.7014,-0.7014,-0.7013,0,0,0,0,0,0,0,0,0,0,0,0,0,-0.7102,-0.712,-0.7091,-0.7076,-0.7075,-0.7065,-0.7064,-0.7064,-0.7042,-0.7042,-0.7042,-0.7041,-0.7014,-0.7014,-0.7013,-0.7015,0,0,-0.7011,-0.701,0,0,0,0,0,0,0,0,-0.7103,-0.7101,-0.7079,-0.7077,-0.7075,-0.7056,-0.7065,-0.7047,-0.7043,-0.7055,-0.7042,-0.7041,-0.7028,-0.7026,-0.7022,-0.7014,-0.7012,-0.701,-0.701,-0.701,-0.7009,0,0,0,0,0,0,0,-0.7104,-0.7102,-0.708,-0.7078,-0.7076,-0.707,-0.7068,-0.7061,-0.7044,-0.7054,-0.7052,-0.7049,-0.7027,-0.7023,-0.7021,-0.7012,-0.701,-0.701,-0.7009,-0.7009,-0.7003,-0.7003,0,0,0,0,0,0,-0.7108,-0.7103,-0.7081,-0.7079,-0.7089,-0.707,-0.7067,-0.7063,-0.7044,-0.704,-0.705,-0.7048,-0.7025,-0.7022,-0.702,-0.7021,-0.701,-0.7009,-0.7008,-0.7003,-0.7003,-0.7003,0,0,0,0,0,0,-0.7109,-0.7106,-0.7082,-0.7091,-0.7087,-0.707,-0.7066,-0.7062,-0.7058,-0.7041,-0.7037,-0.7048,-0.7024,-0.7021,-0.7016,-0.702,-0.7009,-0.7008,-0.7002,-0.7003,-0.7003,-0.7023,0,0,0,0,0,0,-0.711,-0.7107,-0.7108,-0.7091,-0.7087,-0.7079,-0.7066,-0.7062,-0.7057,-0.7055,-0.7039,-0.7036,-0.7024,-0.7018,-0.7016,-0.7019,-0.7007,-0.7002,-0.7002,-0.7003,-0.7022,-0.7024,-0.7026,0,0,0,0,0,-0.7111,-0.7114,-0.7108,-0.7105,-0.7088,-0.7079,-0.7077,-0.7063,-0.7057,-0.7058,-0.7047,-0.7036,-0.702,-0.7017,-0.7015,-0.7018,-0.7002,-0.7002,-0.7003,-0.7021,-0.7023,-0.7026,0,0,0,0,0,0,-0.7131,-0.7112,-0.7105,-0.7103,-0.7093,-0.7076,-0.7076,-0.7067,-0.7058,-0.7057,-0.704,-0.7036,-0.7033,-0.7025,-0.7022,-0.7018,-0.7009,-0.7009,-0.7024,-0.7026,-0.7028,-0.703,-0.7007,0,0,0,0,0,-0.7136,-0.7131,-0.7114,-0.7114,-0.7109,-0.7094,-0.7089,-0.708,-0.7069,-0.7064,-0.7053,-0.7042,-0.7034,-0.703,-0.7022,-0.702,-0.7016,-0.7021,-0.7023,-0.7025,-0.7025,-0.7023,-0.7025,-0.7006,-0.7006,-0.7006,0,0,-0.7145,-0.7133,-0.7131,-0.7118,-0.7109,-0.7104,-0.709,-0.7085,-0.7081,-0.7063,-0.7058,-0.7049,-0.7036,-0.7032,-0.703,-0.7025,-0.7029,-0.7025,-0.7027,-0.7026,-0.7024,-0.7026,-0.7027,-0.7006,-0.7006,-0.7006,0,0,-0.7158,-0.7149,-0.7148,-0.714,-0.7127,-0.7116,-0.7116,-0.71,-0.7093,-0.7087,-0.7074,-0.7068,-0.7056,-0.7047,-0.7041,-0.705,-0.704,-0.7048,-0.7058,-0.7057,-0.7058,-0.7059,-0.7062,-0.7064,-0.7048,-0.7048,-0.7048,0,-0.7171,-0.7163,-0.7149,-0.7145,-0.7139,-0.7123,-0.7121,-0.7113,-0.7098,-0.7094,-0.7089,-0.7072,-0.7062,-0.7056,-0.7059,-0.7054,-0.7053,-0.705,-0.7059,-0.706,-0.7061,-0.7064,-0.7065,-0.7049,-0.7049,-0.7049,-0.7049,0,-0.7179,-0.7174,-0.7174,-0.716,-0.7154,-0.7151,-0.7136,-0.7132,-0.7122,-0.7112,-0.7106,-0.7094,-0.7083,-0.708,-0.7071,-0.7073,-0.707,-0.7062,-0.7053,-0.7064,-0.7066,-0.7067,-0.7051,-0.7051,-0.705,-0.705,0,0,-0.7205,-0.7183,-0.7184,-0.7177,-0.7161,-0.7156,-0.7152,-0.7142,-0.7138,-0.7128,-0.7124,-0.7113,-0.7106,-0.7099,-0.7088,-0.7087,-0.7094,-0.7079,-0.7078,-0.7082,-0.7095,-0.7101,-0.7102,-0.7088,-0.7088,-0.7088,-0.7096,0,-0.7216,-0.7209,-0.7195,-0.7192,-0.7186,-0.7171,-0.7167,-0.7157,-0.7147,-0.714,-0.7129,-0.7122,-0.7112,-0.7108,-0.7106,-0.7094,-0.7097,-0.7093,-0.7083,-0.7083,-0.7087,-0.7104,-0.711,-0.7118,-0.7097,-0.7097,-0.7097,0,-0.7228,-0.7219,-0.7215,-0.7199,-0.7196,-0.7194,-0.7182,-0.7177,-0.7164,-0.7157,-0.7149,-0.7137,-0.7132,-0.7123,-0.7115,-0.7113,-0.7108,-0.7101,-0.7101,-0.71,-0.7091,-0.7102,-0.7121,-0.7122,-0.7098,-0.7098,-0.7098,0,-0.7247,-0.7234,-0.723,-0.7225,-0.7206,-0.7204,-0.7196,-0.7183,-0.7178,-0.7168,-0.7164,-0.7153,-0.7148,-0.7139,-0.7125,-0.712,-0.7118,-0.7109,-0.7112,-0.7112,-0.7112,-0.7112,-0.7129,-0.7109,-0.7109,-0.7109,-0.7109,0,-0.7261,-0.7259,-0.7238,-0.7236,-0.7233,-0.7217,-0.7215,-0.7205,-0.7194,-0.7189,-0.7174,-0.717,-0.7151,-0.7144,-0.7133,-0.7127,-0.7125,-0.7119,-0.7116,-0.712,-0.7121,-0.7116,-0.7115,-0.7109,-0.7109,-0.7109,-0.7109,0,-0.7282,-0.7268,-0.7262,-0.7245,-0.7241,-0.7239,-0.7224,-0.7221,-0.721,-0.7204,-0.7201,-0.7184,-0.7175,-0.716,-0.7146,-0.7139,-0.7135,-0.713,-0.714,-0.7138,-0.7141,-0.7141,-0.7157,-0.7158,-0.7137,-0.7137,-0.7137,0,-0.7291,-0.7289,-0.7272,-0.7268,-0.726,-0.7254,-0.7248,-0.7232,-0.7226,-0.7212,-0.721,-0.72,-0.7191,-0.7177,-0.7163,-0.7152,-0.7147,-0.7153,-0.7145,-0.7149,-0.7146,-0.7147,-0.7146,-0.7155,-0.7155,-0.7155,-0.7155,0,-0.7309,-0.7303,-0.7295,-0.7285,-0.7278,-0.7269,-0.7259,-0.7257,-0.7238,-0.7233,-0.7223,-0.7217,-0.7203,-0.7193,-0.718,-0.7171,-0.716,-0.7158,-0.7158,-0.7162,-0.7168,-0.7164,-0.7144,-0.7158,-0.7157,-0.7157,-0.7157,-0.7157,-0.7325,-0.7322,-0.7309,-0.7301,-0.7292,-0.7283,-0.7279,-0.7268,-0.726,-0.7248,-0.7239,-0.723,-0.7217,-0.7199,-0.719,-0.7183,-0.7178,-0.7178,-0.7178,-0.7178,-0.718,-0.7169,-0.718,-0.718,-0.718,-0.718,-0.718,0,-0.7342,-0.7333,-0.7325,-0.7312,-0.7306,-0.7296,-0.7285,-0.728,-0.7272,-0.7261,-0.7252,-0.7241,-0.7231,-0.7216,-0.7205,-0.7202,-0.7196,-0.7199,-0.7199,-0.7197,-0.7185,-0.7186,-0.7204,-0.7204,-0.7204,-0.7204,-0.7204,-0.7204,-0.735,-0.7345,-0.7337,-0.7327,-0.7318,-0.7309,-0.7304,-0.7295,-0.7286,-0.7274,-0.7266,-0.7257,-0.7244,-0.7231,-0.7221,-0.7217,-0.7213,-0.7218,-0.7212,-0.7201,-0.7198,-0.7196,-0.7197,-0.7217,-0.7217,-0.7225,-0.7225,-0.7225]},{"header":{"parameterUnit":"m.s-1","parameterCategory":1,"la1":30.2991,"la2":30.254,"lo1":-89.0895,"lo2":-89.0444,"dy":0.0017,"dx":0.0017,"nx":28,"ny":28,"refTime":"2023-10-10T21:00:00:Z","depth":0,"parameterNumber":3,"parameterNumberName":"V-component_of_WINDS"},"data":[0,0,0,0,0,0,0,0,0,0,0,0,0,0,0,0,0,0,0,0,0,0,0,0,0,0,0,0,0,0,0,0,0,0,0,0,0,0,0,0,0,0,0,0,0,0,0,0,0,0,0,0,0,0,0,0,0,0,-2.7001,-2.7002,0,-2.7132,-2.7133,-2.7135,-2.7196,-2.7196,-2.7196,-2.7196,-2.7328,-2.7331,-2.7335,0,0,0,0,0,0,0,0,0,0,0,0,0,-2.6803,-2.6806,-2.7001,-2.7002,-2.7004,-2.7131,-2.7133,-2.7135,-2.7196,-2.7196,-2.7196,-2.7196,-2.7326,-2.7331,-2.7335,0,0,0,0,0,0,0,0,0,0,0,0,0,-2.6907,-2.6807,-2.7,-2.705,-2.7056,-2.7131,-2.7133,-2.7135,-2.7196,-2.7196,-2.7196,-2.7196,-2.7325,-2.733,-2.7336,-2.7371,0,0,-2.7352,-2.7354,0,0,0,0,0,0,0,0,-2.6901,-2.6914,-2.7041,-2.7047,-2.7053,-2.7147,-2.7112,-2.7214,-2.7196,-2.7143,-2.7196,-2.7196,-2.7268,-2.7278,-2.7302,-2.7377,-2.7383,-2.7352,-2.7356,-2.7358,-2.736,0,0,0,0,0,0,0,-2.6893,-2.6909,-2.7052,-2.7043,-2.705,-2.7065,-2.708,-2.7132,-2.7204,-2.7147,-2.7152,-2.7167,-2.7271,-2.7297,-2.7306,-2.7385,-2.7352,-2.7357,-2.736,-2.7362,-2.7498,-2.7498,0,0,0,0,0,0,-2.6878,-2.6902,-2.7048,-2.7056,-2.6975,-2.7069,-2.7085,-2.7117,-2.7204,-2.7217,-2.7167,-2.7169,-2.7288,-2.73,-2.7311,-2.736,-2.7358,-2.7363,-2.7366,-2.7497,-2.7498,-2.7498,0,0,0,0,0,0,-2.6874,-2.6891,-2.7043,-2.6981,-2.7001,-2.7072,-2.7108,-2.712,-2.7146,-2.7219,-2.7232,-2.718,-2.7288,-2.7303,-2.7356,-2.7365,-2.7365,-2.737,-2.7497,-2.7498,-2.7498,-2.7457,0,0,0,0,0,0,-2.6868,-2.6889,-2.6903,-2.6981,-2.7004,-2.7086,-2.7108,-2.7122,-2.7156,-2.716,-2.7235,-2.7247,-2.7289,-2.7348,-2.7362,-2.7373,-2.7375,-2.7496,-2.7497,-2.7498,-2.7458,-2.7456,-2.7455,0,0,0,0,0,-2.6861,-2.6885,-2.6903,-2.6921,-2.7024,-2.7087,-2.71,-2.7149,-2.7156,-2.7171,-2.7218,-2.7245,-2.7362,-2.7353,-2.7369,-2.7382,-2.7496,-2.7497,-2.7498,-2.7459,-2.7457,-2.7455,0,0,0,0,0,0,-2.6805,-2.6896,-2.6917,-2.6968,-2.7019,-2.7097,-2.7117,-2.7145,-2.7195,-2.7197,-2.7255,-2.7271,-2.732,-2.7356,-2.7344,-2.7422,-2.7432,-2.7436,-2.7396,-2.7395,-2.7393,-2.7384,-2.7379,0,0,0,0,0,-2.6799,-2.6843,-2.692,-2.6957,-2.6982,-2.7045,-2.7074,-2.7108,-2.7163,-2.7185,-2.7236,-2.7288,-2.7337,-2.7368,-2.7417,-2.7463,-2.7481,-2.748,-2.7478,-2.7477,-2.748,-2.7509,-2.751,-2.7501,-2.7501,-2.7501,0,0,-2.6787,-2.6842,-2.6866,-2.6947,-2.6991,-2.7036,-2.7063,-2.7108,-2.7142,-2.7192,-2.7246,-2.7285,-2.7347,-2.7397,-2.7422,-2.7429,-2.7486,-2.7478,-2.7476,-2.748,-2.751,-2.7511,-2.7512,-2.7502,-2.7501,-2.7501,0,0,-2.6787,-2.6832,-2.687,-2.6913,-2.698,-2.7022,-2.7031,-2.7105,-2.7134,-2.7189,-2.7228,-2.7268,-2.7351,-2.7395,-2.7427,-2.7446,-2.7473,-2.746,-2.7452,-2.748,-2.7481,-2.7482,-2.749,-2.7492,-2.7463,-2.7463,-2.7463,0,-2.6763,-2.6832,-2.6885,-2.6929,-2.6964,-2.7013,-2.7051,-2.7091,-2.7169,-2.7193,-2.72,-2.7306,-2.7351,-2.7414,-2.7419,-2.7443,-2.7456,-2.7452,-2.7477,-2.7478,-2.748,-2.7489,-2.7491,-2.7461,-2.7461,-2.7461,-2.7462,0,-2.68,-2.6847,-2.6869,-2.6946,-2.6983,-2.7024,-2.7084,-2.7115,-2.7146,-2.7188,-2.7244,-2.73,-2.7362,-2.7379,-2.7409,-2.7447,-2.7449,-2.7465,-2.7477,-2.7478,-2.7487,-2.7491,-2.7458,-2.7459,-2.746,-2.746,0,0,-2.6768,-2.6875,-2.6882,-2.6919,-2.6997,-2.7034,-2.7078,-2.714,-2.7167,-2.722,-2.7258,-2.7328,-2.7345,-2.7382,-2.7417,-2.7441,-2.7455,-2.7455,-2.7457,-2.7454,-2.7502,-2.7491,-2.7494,-2.7473,-2.7474,-2.7475,-2.7498,0,-2.678,-2.6861,-2.6911,-2.6972,-2.7018,-2.7065,-2.7104,-2.7156,-2.7196,-2.724,-2.7284,-2.7334,-2.7351,-2.7374,-2.74,-2.7448,-2.7466,-2.7447,-2.751,-2.7512,-2.7495,-2.7498,-2.7486,-2.7505,-2.7502,-2.7502,-2.7503,0,-2.6804,-2.6859,-2.6925,-2.7,-2.7021,-2.7054,-2.7117,-2.7158,-2.7219,-2.7246,-2.7289,-2.7325,-2.7373,-2.738,-2.7449,-2.7434,-2.7464,-2.7491,-2.7493,-2.7502,-2.7508,-2.7508,-2.7512,-2.7515,-2.7508,-2.7508,-2.7508,0,-2.6777,-2.6866,-2.6918,-2.6947,-2.7035,-2.7058,-2.7096,-2.7157,-2.7192,-2.7246,-2.7269,-2.7327,-2.7359,-2.7404,-2.7455,-2.7455,-2.7518,-2.7529,-2.7543,-2.7542,-2.7555,-2.7554,-2.7565,-2.7572,-2.7571,-2.7571,-2.7571,0,-2.6786,-2.6825,-2.6907,-2.6938,-2.6984,-2.7041,-2.7085,-2.7126,-2.718,-2.7221,-2.7265,-2.7302,-2.7367,-2.7413,-2.7452,-2.7504,-2.7518,-2.7542,-2.7552,-2.7539,-2.7536,-2.7559,-2.756,-2.7572,-2.7572,-2.7572,-2.7572,0,-2.6762,-2.6819,-2.6879,-2.6959,-2.698,-2.701,-2.7078,-2.7111,-2.7155,-2.7206,-2.7221,-2.7289,-2.7345,-2.7401,-2.7475,-2.7502,-2.7554,-2.7567,-2.7534,-2.754,-2.7552,-2.755,-2.7579,-2.7586,-2.7586,-2.7586,-2.7586,0,-2.6765,-2.6796,-2.688,-2.6912,-2.6949,-2.6999,-2.7035,-2.7093,-2.7129,-2.7202,-2.7226,-2.7286,-2.7337,-2.7425,-2.748,-2.7538,-2.7554,-2.756,-2.7563,-2.7549,-2.7556,-2.7554,-2.7558,-2.7559,-2.7558,-2.7558,-2.7558,0,-2.6764,-2.6791,-2.6842,-2.6904,-2.6947,-2.6998,-2.7051,-2.7074,-2.7142,-2.718,-2.7239,-2.7279,-2.7357,-2.7416,-2.7481,-2.752,-2.7551,-2.7557,-2.7563,-2.755,-2.7531,-2.7543,-2.7531,-2.7556,-2.7556,-2.7556,-2.7556,-2.7556,-2.6755,-2.6786,-2.6851,-2.6907,-2.6953,-2.7002,-2.7038,-2.7087,-2.7137,-2.7206,-2.7237,-2.7296,-2.7358,-2.7449,-2.7487,-2.7535,-2.7543,-2.7552,-2.7554,-2.7556,-2.7554,-2.7522,-2.7547,-2.7547,-2.7547,-2.7547,-2.7547,0,-2.6757,-2.6802,-2.6854,-2.6927,-2.6972,-2.6998,-2.7058,-2.7094,-2.7146,-2.7202,-2.7252,-2.732,-2.7379,-2.7439,-2.7501,-2.7528,-2.7544,-2.7542,-2.7541,-2.755,-2.7543,-2.7532,-2.7529,-2.7529,-2.7529,-2.7528,-2.7528,-2.7528,-2.6764,-2.6819,-2.6854,-2.6933,-2.6977,-2.7037,-2.707,-2.7115,-2.716,-2.7235,-2.7285,-2.7324,-2.7383,-2.7449,-2.7504,-2.7521,-2.7542,-2.7537,-2.7557,-2.7549,-2.755,-2.7552,-2.7542,-2.754,-2.754,-2.7561,-2.7561,-2.7561]}]]